User: anonymous   Login
Location: Columbia
(38.9520°N, 92.3340°W)
Time: 20:16:32
(UTC-05:00)
Language:

SL-08 RB Rocket - Orbit

View from above orbital plane
View from above orbital plane
View from above satellite
View from above satellite

Ground track
Ground track

The orbit data is extracted from the following two-line orbital elements,

1 26387U 00033D   17293.26862269  .00000135  00000-0  31694-4 0  9991
2 26387  97.9570 354.2625 0025268 300.8089  98.9764 14.68321186926238
Epoch (UTC): 20 October 2017 06:26:49
Eccentricity: 0.0025268
inclination: 97.9570°
perigee height: 648 km
apogee height: 684 km
right ascension of ascending node: 354.2625°
argument of perigee: 300.8089°
revolutions per day: 14.68321186
mean anomaly at epoch: 98.9764°
orbit number at epoch: 92623

The dashed part of the orbit path shows where the satellite is in the earth's shadow,  

DLR